Regional Weather Roundup
Issued by NWS

Home | Current Version | Previous Version | Graphics & Text | Print | Product List | Glossary Off
Versions: 1 2 3 4 5 6 7 8 9 10 11 12 13 14 15 16 17 18 19 20 21 22 23 24 25 26 27 28 29 30 31 32 33 34 35 36 37 38 39 40 41 42 43 44 45 46 47 48 49 50

000
ASUS43 KTOP 270908
RWRKS

WEATHER ROUNDUP FOR KANSAS
NATIONAL WEATHER SERVICE GOODLAND KS
400 AM CDT FRI MAR 27 2015

NOTE:  "FAIR" INDICATES FEW OR NO CLOUDS BELOW 12,000 FEET WITH NO
SIGNIFICANT WEATHER AND/OR OBSTRUCTIONS TO VISIBILITY.

KSZ001>006-013>018-027>032-041>047-271000-
NORTHWEST KANSAS

CITY           SKY/WX    TMP DP  RH WIND       PRES   REMARKS
GOODLAND       CLOUDY    34  29  82 E12       30.18F WCI  25
HAYS           CLOUDY    36  25  64 NE13      30.23R WCI  27
HILL CITY      CLOUDY    35  29  78 NE9       30.25R
RUSSELL        CLOUDY    35  31  85 NE16      30.21R WCI  25
$$

KSZ061>065-074>080-084>089-271000-
SOUTHWEST KANSAS

CITY           SKY/WX    TMP DP  RH WIND       PRES   REMARKS
DODGE CITY     CLOUDY    36  31  82 N15       30.20R WCI  27
ELKHART          N/A     43  28  55 W3          N/A
GARDEN CITY    CLOUDY    40  31  70 NE14      30.18S WCI  32
GREAT BEND     CLOUDY    36  28  75 NE15      30.21R WCI  26
LIBERAL        MOCLDY    45  30  57 NE6       30.18F
PRATT          CLOUDY    36  32  87 N13       30.19R WCI  27
$$

KSZ066>073-081>083-090>101-271000-
SOUTHEAST KANSAS

CITY           SKY/WX    TMP DP  RH WIND       PRES   REMARKS
CHANUTE        CLOUDY    40  36  86 N10       30.12S WCI  33
COFFEYVILLE    MOCLDY    40  36  86 NE12      30.10S WCI  33
HUTCHINSON     CLOUDY    38  33  82 N13G21    30.18R WCI  30
MEDICINE LODGE   N/A     40  35  83 N15G26    30.16R WCI  32
NEWTON         CLOUDY    37  30  75 N14G22    30.17R WCI  29
PARSONS        PTCLDY    41  37  86 NE5       30.12S
WICHITA INTL   CLOUDY    41  34  76 N10       30.15R
WICHITA JABRA  CLOUDY    39  35  86 N13G22    30.14R WCI  31
WINFIELD       PTCLDY    40  36  86 NE10      30.13R WCI  33
$$

KSZ007>012-019>026-033>040-048>060-102>105-271000-
NORTHEAST KANSAS

CITY           SKY/WX    TMP DP  RH WIND       PRES   REMARKS
CONCORDIA      CLOUDY    32  30  92 N7        30.23R
EMPORIA        CLOUDY    36  34  92 N16       30.15S WCI  26
LAWRENCE       CLOUDY    36  33  89 N7        30.17F
MANHATTAN      CLOUDY    35  31  85 NE12      30.21S WCI  27
MARYSVILLE     CLEAR     32  30  93 N5        30.21S
OLATHE IND     CLOUDY    36  34  92 N12       30.16S WCI  28
OLATHE EXE     CLOUDY    37  33  85 N12       30.14S WCI  29
SALINA         CLOUDY    37  30  75 N15       30.22R WCI  28
TOPEKA BILLARD CLOUDY    36  33  89 N12       30.19S WCI  28
TOPEKA FORBES  CLOUDY    37  33  85 N10       30.17S WCI  30
$$



USA.gov is the U.S. government's official web portal to all federal, state and local government web resources and services.